User: anonymous   Login
Location: Unspecified
(0.0000°N, 0.0000°E)
Time: 19:10:04
(UTC+00:00)
Language:

ONEWEB-0098 - Orbit

View from above orbital plane
View from above orbital plane
View from above satellite
View from above satellite

Ground track
Ground track

The orbit is defined by the following mean orbital elements,

1 45442U          26145.61116209 +.00000000 +00000-0 -15453-2 0 00007
2 45442  87.8913  25.5591 0001715  80.7339 279.3982 13.11414521    01
Epoch (UTC): 25 May 2026 14:40:04
Eccentricity: 0.0001715
inclination: 87.8913°
perigee height: 1216 km
apogee height: 1219 km
right ascension of ascending node: 25.5591°
argument of perigee: 80.7339°
revolutions per day: 13.11414521
mean anomaly at epoch: 279.3982°

The dashed part of the orbit path shows where the satellite is in the earth's shadow,  

DLR